• In Portugal
  • List of Countries
  • For 7 days
  • Water Temperature
  • Satellite Maps
  • Weather Map
  • Weather Widgets
  • user-avatar
    Login

    Hourly Weather Ramadi

    Today, 20 July, Friday

    Time Temperature Precipitation Wind Pressure Humidity
    00:00 +40°C° 0 mm 4 mps 745 mmHg 15%
    01:00 +38°C° 0 mm 4 mps 745 mmHg 16%
    02:00 +37°C° 0 mm 4 mps 745 mmHg 17%
    03:00 +37°C° 0 mm 3 mps 745 mmHg 18%
    04:00 +36°C° 0 mm 4 mps 745 mmHg 19%
    05:00 +36°C° 0 mm 5 mps 745 mmHg 20%
    06:00 +35°C° 0 mm 5 mps 745 mmHg 21%
    07:00 +36°C° 0 mm 6 mps 746 mmHg 20%
    08:00 +39°C° 0 mm 6 mps 746 mmHg 19%
    09:00 +40°C° 0 mm 7 mps 746 mmHg 18%
    10:00 +41°C° 0 mm 7 mps 746 mmHg 16%
    11:00 +44°C° 0 mm 7 mps 746 mmHg 14%
    12:00 +45°C° 0 mm 6 mps 746 mmHg 12%
    13:00 +46°C° 0 mm 7 mps 746 mmHg 11%
    14:00 +47°C° 0 mm 7 mps 745 mmHg 10%
    15:00 +47°C° 0 mm 7 mps 745 mmHg 9%
    16:00 +47°C° 0 mm 7 mps 745 mmHg 9%
    17:00 +46°C° 0 mm 7 mps 744 mmHg 10%
    18:00 +45°C° 0 mm 7 mps 744 mmHg 10%
    19:00 +44°C° 0 mm 6 mps 744 mmHg 11%
    20:00 +42°C° 0 mm 6 mps 744 mmHg 13%
    21:00 +40°C° 0 mm 5 mps 745 mmHg 14%
    22:00 +40°C° 0 mm 5 mps 745 mmHg 15%
    23:00 +39°C° 0 mm 5 mps 745 mmHg 15%

    Tomorrow, 21 July, Saturday

    Time Temperature Precipitation Wind Pressure Humidity
    00:00 +37°C° 0 mm 4 mps 745 mmHg 16%
    01:00 +37°C° 0 mm 4 mps 745 mmHg 17%
    02:00 +36°C° 0 mm 4 mps 745 mmHg 17%
    03:00 +36°C° 0 mm 4 mps 745 mmHg 18%
    04:00 +35°C° 0 mm 5 mps 745 mmHg 23%
    05:00 +35°C° 0 mm 5 mps 745 mmHg 27%
    06:00 +34°C° 0 mm 5 mps 745 mmHg 32%
    07:00 +36°C° 0 mm 6 mps 745 mmHg 30%
    08:00 +38°C° 0 mm 7 mps 746 mmHg 29%
    09:00 +39°C° 0 mm 8 mps 746 mmHg 27%
    10:00 +41°C° 0 mm 7 mps 746 mmHg 23%
    11:00 +43°C° 0 mm 7 mps 746 mmHg 19%
    12:00 +45°C° 0 mm 7 mps 746 mmHg 15%
    13:00 +45°C° 0 mm 7 mps 745 mmHg 13%
    14:00 +46°C° 0 mm 7 mps 745 mmHg 12%
    15:00 +47°C° 0 mm 6 mps 744 mmHg 10%
    16:00 +46°C° 0 mm 6 mps 744 mmHg 10%
    17:00 +46°C° 0 mm 6 mps 744 mmHg 9%
    18:00 +46°C° 0 mm 6 mps 744 mmHg 9%
    19:00 +43°C° 0 mm 5 mps 744 mmHg 10%
    20:00 +42°C° 0 mm 4 mps 744 mmHg 11%
    21:00 +40°C° 0 mm 4 mps 745 mmHg 12%
    22:00 +40°C° 0 mm 4 mps 745 mmHg 13%
    23:00 +38°C° 0 mm 4 mps 745 mmHg 14%

    Day after tomorrow, 22 July, Sunday

    Time Temperature Precipitation Wind Pressure Humidity
    00:00 +37°C° 0 mm 4 mps 745 mmHg 15%
    01:00 +37°C° 0 mm 4 mps 745 mmHg 16%
    02:00 +36°C° 0 mm 4 mps 745 mmHg 17%
    03:00 +36°C° 0 mm 4 mps 744 mmHg 17%
    04:00 +36°C° 0 mm 4 mps 745 mmHg 20%
    05:00 +35°C° 0 mm 5 mps 745 mmHg 22%
    06:00 +35°C° 0 mm 5 mps 745 mmHg 24%
    07:00 +37°C° 0 mm 5 mps 745 mmHg 26%
    08:00 +39°C° 0 mm 6 mps 745 mmHg 27%
    09:00 +41°C° 0 mm 6 mps 746 mmHg 29%
    10:00 +42°C° 0 mm 6 mps 745 mmHg 25%
    11:00 +43°C° 0 mm 5 mps 745 mmHg 21%
    12:00 +45°C° 0 mm 5 mps 745 mmHg 17%
    13:00 +46°C° 0 mm 5 mps 744 mmHg 15%
    14:00 +47°C° 0 mm 5 mps 744 mmHg 13%
    15:00 +47°C° 0 mm 6 mps 743 mmHg 11%
    16:00 +47°C° 0 mm 5 mps 743 mmHg 11%
    17:00 +47°C° 0 mm 5 mps 743 mmHg 10%
    18:00 +47°C° 0 mm 5 mps 743 mmHg 10%
    19:00 +44°C° 0 mm 4 mps 743 mmHg 11%
    20:00 +43°C° 0 mm 3 mps 744 mmHg 12%
    21:00 +42°C° 0 mm 3 mps 744 mmHg 13%
    22:00 +40°C° 0 mm 3 mps 744 mmHg 14%
    23:00 +39°C° 0 mm 3 mps 744 mmHg 15%

    23 July, Monday

    Time Temperature Precipitation Wind Pressure Humidity
    00:00 +39°C° 0 mm 3 mps 744 mmHg 16%
    01:00 +38°C° 0 mm 3 mps 744 mmHg 17%
    02:00 +38°C° 0 mm 3 mps 743 mmHg 18%
    03:00 +37°C° 0 mm 4 mps 743 mmHg 19%
    04:00 +37°C° 0 mm 4 mps 744 mmHg 23%
    05:00 +37°C° 0 mm 5 mps 744 mmHg 26%
    06:00 +36°C° 0 mm 5 mps 744 mmHg 29%
    07:00 +39°C° 0 mm 6 mps 744 mmHg 27%
    08:00 +40°C° 0 mm 6 mps 745 mmHg 26%
    09:00 +41°C° 0 mm 7 mps 745 mmHg 25%
    10:00 +42°C° 0 mm 6 mps 745 mmHg 22%
    11:00 +45°C° 0 mm 6 mps 744 mmHg 19%
    12:00 +46°C° 0 mm 6 mps 744 mmHg 16%
    13:00 +47°C° 0 mm 6 mps 744 mmHg 14%
    14:00 +47°C° 0 mm 6 mps 743 mmHg 13%
    15:00 +48°C° 0 mm 6 mps 743 mmHg 12%
    16:00 +47°C° 0 mm 6 mps 743 mmHg 12%
    17:00 +47°C° 0 mm 5 mps 743 mmHg 12%
    18:00 +47°C° 0 mm 5 mps 742 mmHg 12%
    19:00 +44°C° 0 mm 4 mps 743 mmHg 13%
    20:00 +43°C° 0 mm 3 mps 743 mmHg 14%
    21:00 +41°C° 0 mm 2 mps 743 mmHg 15%
    22:00 +42°C° 0 mm 3 mps 743 mmHg 16%
    23:00 +40°C° 0 mm 3 mps 743 mmHg 16%

    24 July, Tuesday

    Time Temperature Precipitation Wind Pressure Humidity
    00:00 +41°C° 0 mm 4 mps 743 mmHg 17%
    01:00 +40°C° 0 mm 4 mps 743 mmHg 18%
    02:00 +40°C° 0 mm 5 mps 743 mmHg 19%
    03:00 +39°C° 0 mm 6 mps 743 mmHg 20%
    04:00 +39°C° 0 mm 6 mps 743 mmHg 23%
    05:00 +38°C° 0 mm 6 mps 744 mmHg 25%
    06:00 +38°C° 0 mm 6 mps 744 mmHg 28%
    07:00 +39°C° 0 mm 7 mps 744 mmHg 26%
    08:00 +40°C° 0 mm 8 mps 744 mmHg 25%
    09:00 +43°C° 0 mm 8 mps 745 mmHg 23%
    10:00 +44°C° 0 mm 8 mps 744 mmHg 20%
    11:00 +46°C° 0 mm 8 mps 744 mmHg 17%
    12:00 +49°C° 0 mm 7 mps 744 mmHg 14%
    13:00 +49°C° 0 mm 7 mps 743 mmHg 13%
    14:00 +49°C° 0 mm 6 mps 743 mmHg 12%
    15:00 +49°C° 0 mm 6 mps 743 mmHg 11%
    16:00 +49°C° 0 mm 6 mps 742 mmHg 11%
    17:00 +49°C° 0 mm 5 mps 742 mmHg 11%
    18:00 +49°C° 0 mm 5 mps 742 mmHg 10%
    19:00 +48°C° 0 mm 5 mps 742 mmHg 11%
    20:00 +46°C° 0 mm 6 mps 743 mmHg 12%
    21:00 +45°C° 0 mm 6 mps 743 mmHg 13%
    22:00 +45°C° 0 mm 6 mps 743 mmHg 13%
    23:00 +44°C° 0 mm 7 mps 743 mmHg 14%

    25 July, Wednesday

    Time Temperature Precipitation Wind Pressure Humidity
    00:00 +43°C° 0 mm 8 mps 743 mmHg 14%
    01:00 +43°C° 0 mm 8 mps 743 mmHg 16%
    02:00 +41°C° 0 mm 8 mps 743 mmHg 18%
    03:00 +41°C° 0 mm 8 mps 743 mmHg 20%
    04:00 +40°C° 0 mm 9 mps 743 mmHg 22%
    05:00 +39°C° 0 mm 9 mps 743 mmHg 24%
    06:00 +39°C° 0 mm 9 mps 744 mmHg 26%
    07:00 +40°C° 0 mm 9 mps 744 mmHg 24%
    08:00 +43°C° 0 mm 10 mps 744 mmHg 21%
    09:00 +44°C° 0 mm 10 mps 744 mmHg 19%
    10:00 +47°C° 0 mm 9 mps 744 mmHg 16%
    11:00 +49°C° 0 mm 9 mps 744 mmHg 14%
    12:00 +50°C° 0 mm 8 mps 743 mmHg 11%
    13:00 +51°C° 0 mm 8 mps 743 mmHg 10%
    14:00 +52°C° 0 mm 7 mps 743 mmHg 10%
    15:00 +52°C° 0 mm 7 mps 742 mmHg 9%
    16:00 +52°C° 0 mm 7 mps 742 mmHg 9%
    17:00 +51°C° 0 mm 6 mps 742 mmHg 9%
    18:00 +51°C° 0 mm 6 mps 742 mmHg 9%
    19:00 +49°C° 0 mm 6 mps 742 mmHg 10%
    20:00 +47°C° 0 mm 6 mps 742 mmHg 11%
    21:00 +46°C° 0 mm 5 mps 742 mmHg 12%
    22:00 +45°C° 0 mm 6 mps 742 mmHg 12%
    23:00 +45°C° 0 mm 7 mps 743 mmHg 13%
    Show more